This is the latest recevied weather packets stored in our database for station/object VE1UHF-4. If no packets are shown the sender has not sent any weather packets the latest 10 day(s).
| Time | Temp. | Humidity | Pressure | Rain* | Wind** | Luminosity | Snow |
|---|---|---|---|---|---|---|---|
| 1777514334 | 12.22° C | 60% | 1013.8 hPa | 0 mm | - | - | - |
| 1777511633 | 13.89° C | 59% | 1013.8 hPa | 0 mm | - | - | - |
| 1777510732 | 14.44° C | 58% | 1014 hPa | 0 mm | - | - | - |
| 1777509832 | 15° C | 58% | 1014.1 hPa | 0 mm | - | - | - |
| 1777508931 | 15.56° C | 57% | 1014 hPa | 0 mm | - | - | - |
| 1777508030 | 16.11° C | 58% | 1013.7 hPa | 0 mm | - | - | - |
| 1777507131 | 16.11° C | 58% | 1013.6 hPa | 0 mm | - | - | - |
| 1777502628 | 15.56° C | 60% | 1013.2 hPa | 0 mm | - | - | - |
| 1777501727 | 16.11° C | 60% | 1013 hPa | 0 mm | - | - | - |
| 1777499926 | 16.67° C | 61% | 1013 hPa | 0 mm | - | - | - |
| 1777498125 | 17.22° C | 61% | 1012.9 hPa | 0 mm | - | - | - |
| 1777497225 | 17.22° C | 61% | 1013 hPa | 0 mm | - | - | - |
| 1777496323 | 17.22° C | 62% | 1013 hPa | 0 mm | - | - | - |
| 1777490920 | 17.78° C | 64% | 1013.5 hPa | 0 mm | - | - | - |
| 1777490021 | 17.78° C | 64% | 1013.7 hPa | 0 mm | - | - | - |
| 1777489119 | 17.78° C | 65% | 1013.9 hPa | 0 mm | - | - | - |
| 1777488223 | 17.78° C | 65% | 1014 hPa | 0 mm | - | - | - |
| 1777487318 | 17.78° C | 67% | 1014.2 hPa | 0 mm | - | - | - |
| 1777486417 | 17.78° C | 68% | 1014.2 hPa | 0 mm | - | - | - |
| 1777485517 | 17.78° C | 68% | 1014.5 hPa | 0 mm | - | - | - |
| 1777483716 | 17.78° C | 70% | 1014.8 hPa | 0 mm | - | - | - |
| 1777481912 | 17.22° C | 71% | 1014.8 hPa | 0 mm | - | - | - |
| 1777480111 | 16.11° C | 73% | 1014.9 hPa | 0 mm | - | - | - |
| 1777478310 | 15° C | 74% | 1015.1 hPa | 0 mm | - | - | - |
| 1777476509 | 14.44° C | 74% | 1015.4 hPa | 0 mm | - | - | - |
* Rain since midnight (hover to see other rain measurements)
** Current wind speed in m/s (hover to see current wind gust speed)